Theta_e
319 317 317 318 314 314 319 324 330 332 330 334 336 332 332 332 330 328 330 330 327 334 338 338 338 336 334 336 337 334 340 344 342 344 344 334 321 323 326 326 329 328 329 328 329 330 330 331 331 332 333 332 332 332 332 330 327 329 329 329 328 327 326 325 327 328 328 329 329 330 329 330 332 333 333 334 335 335 335 336 336 336 335 334 333 333 333 333 334 333 333 332 333 332 331 329 329
316 317 319 317 314 316 324 326 330 333 331 333 332 332 333 330 328 328 329 329 329 335 337 337 336 335 335 333 333 332 335 334 332 332 327 321 320 324 325 327 328 328 328 328 328 329 331 331 330 331 331 332 332 332 333 330 328 329 329 328 327 326 325 326 327 326 327 328 329 329 329 331 333 333 333 334 334 334 335 335 335 335 334 333 332 332 332 333 333 333 332 332 332 330 329 327 328
316 318 316 314 313 318 327 326 330 334 333 332 331 334 332 329 329 329 329 329 330 334 334 333 330 330 332 332 330 332 335 331 322 322 320 318 322 324 326 328 327 328 327 326 328 329 331 331 330 330 331 332 332 332 332 331 330 330 330 329 328 328 327 327 328 328 328 328 328 330 331 332 333 333 333 333 334 334 335 334 334 334 333 332 331 331 330 331 331 331 331 331 330 328 327 326 326
317 318 314 312 315 321 329 329 333 335 333 332 331 335 334 329 329 328 329 332 333 334 334 331 329 323 326 334 330 330 334 332 320 320 324 319 322 326 326 328 328 327 325 327 329 329 330 331 331 331 333 333 332 332 331 330 330 330 329 328 329 329 329 329 330 331 330 329 329 331 332 332 333 333 333 334 334 334 334 334 334 332 331 330 330 330 329 329 329 329 329 328 327 326 326 325 325
318 318 313 313 316 322 330 328 332 333 331 333 333 338 335 329 329 329 330 337 337 335 334 329 330 321 320 327 327 332 331 328 319 315 321 320 322 326 326 328 328 327 325 327 328 328 329 330 330 330 333 333 332 332 330 329 329 329 328 328 329 329 330 330 330 330 330 330 330 331 331 331 332 332 333 333 333 334 334 333 333 332 330 330 329 329 328 327 327 327 327 326 325 325 324 324 324
317 315 313 312 315 321 327 328 330 330 330 332 335 339 337 330 329 330 332 338 338 336 333 330 329 323 325 322 318 326 323 323 320 315 318 320 324 325 327 328 327 327 325 327 328 327 327 329 329 330 332 332 332 332 331 330 329 329 328 329 328 328 329 329 330 330 330 330 330 330 331 331 331 332 333 333 333 333 333 332 331 330 329 328 327 327 327 326 325 325 325 324 324 324 323 323 322
316 313 317 315 316 322 325 329 330 331 330 328 333 333 330 331 331 332 333 332 332 333 331 331 326 324 330 322 318 318 312 316 317 316 319 321 325 325 328 327 327 327 324 327 328 327 327 328 329 330 331 331 331 332 332 331 331 330 330 329 328 329 329 329 329 329 330 330 330 329 330 330 331 332 333 333 332 332 331 331 329 328 327 326 326 325 325 325 324 324 324 323 323 323 322 322 320
317 316 321 320 320 324 325 328 327 329 330 325 329 329 324 329 332 330 332 331 330 332 331 331 325 327 329 320 327 320 309 315 314 316 319 321 325 325 328 327 327 326 324 327 327 327 327 327 328 328 328 330 331 332 332 331 331 331 331 330 329 329 328 328 328 329 330 330 330 329 330 330 331 333 332 332 332 331 330 329 327 326 326 325 325 324 323 323 323 323 323 323 323 322 321 321 318
315 314 318 320 321 322 324 327 325 324 327 325 326 326 323 326 330 328 329 329 329 333 335 334 327 330 329 321 331 321 310 316 314 317 319 322 325 325 328 326 326 325 324 326 327 327 326 328 328 327 328 330 331 331 332 331 331 331 331 330 330 329 327 327 327 329 330 329 330 329 330 330 331 332 332 332 331 330 329 327 326 325 324 324 323 323 323 323 323 323 322 322 322 321 321 320 317
316 316 319 321 320 321 322 324 325 324 324 324 323 322 323 324 326 327 327 325 326 331 333 330 325 329 329 326 332 319 313 316 314 318 320 323 324 325 326 325 326 325 324 326 327 327 327 329 329 329 329 330 331 331 331 331 331 331 331 330 330 329 327 328 327 328 329 329 329 329 330 330 331 331 331 331 330 329 327 326 324 324 323 323 322 322 322 322 322 322 322 321 321 321 320 319 317
322 321 318 320 320 321 321 321 322 323 323 322 321 322 321 321 320 326 330 327 326 329 328 325 326 331 325 328 333 316 311 314 315 318 321 322 324 325 325 325 325 325 324 325 327 327 327 329 329 330 329 330 331 331 331 330 331 330 330 330 330 329 328 328 327 327 328 328 328 329 329 330 330 330 330 329 328 327 325 325 323 323 322 322 322 321 322 321 321 321 321 320 320 320 319 318 316
324 323 317 320 322 322 322 322 321 320 324 320 320 323 320 321 323 328 334 332 332 331 331 328 328 329 324 334 334 313 310 315 315 318 321 322 323 324 324 324 325 325 325 325 327 328 328 329 329 330 330 330 330 330 331 329 330 330 330 329 329 328 328 328 327 327 328 328 328 328 328 329 329 328 328 327 326 325 324 323 323 322 321 321 321 320 321 320 320 320 320 320 319 319 318 317 315
323 325 322 323 323 325 323 323 325 322 323 323 321 323 322 325 330 333 336 334 333 332 333 330 325 325 326 335 328 313 315 316 315 318 320 321 323 324 324 324 324 325 325 326 327 327 329 329 329 330 330 329 329 331 330 329 329 329 329 328 328 327 327 327 326 327 327 327 327 327 327 327 327 327 327 325 325 324 323 323 322 321 321 321 320 320 320 319 319 319 320 319 319 318 317 316 314
322 323 322 323 322 326 326 322 325 322 322 326 323 322 323 325 330 334 334 334 336 334 328 324 323 325 327 329 330 327 321 314 316 319 320 321 323 324 324 324 324 324 325 326 327 327 328 329 329 329 329 329 329 330 329 328 328 328 328 327 326 326 326 325 326 326 325 326 326 326 326 326 325 325 325 324 323 323 322 322 321 321 320 320 320 320 319 319 319 319 319 319 318 317 316 315 314
320 324 322 323 323 323 324 321 322 321 321 324 320 320 322 321 328 334 332 329 333 329 321 319 320 325 328 328 334 333 318 313 317 318 319 321 322 323 324 324 324 324 325 326 326 327 327 328 329 329 328 328 329 329 328 328 327 327 326 325 325 325 325 324 324 324 324 324 324 324 325 324 324 323 323 322 322 321 321 321 321 321 320 320 320 319 319 319 319 318 319 318 317 315 314 313 313
319 326 323 322 325 323 321 321 322 321 322 324 319 318 319 319 323 328 327 325 327 323 321 324 319 319 328 327 322 316 312 315 317 318 319 319 320 322 322 324 324 324 324 325 326 326 327 327 327 327 328 328 328 328 327 327 326 325 325 325 324 324 324 323 323 323 323 323 323 323 323 323 322 322 322 321 320 320 320 319 320 320 319 319 319 318 318 318 317 318 317 317 315 313 312 313 313
320 323 324 321 324 323 320 320 322 323 324 324 320 318 316 317 320 320 318 320 326 324 322 323 315 313 321 320 312 308 312 315 315 317 317 317 318 319 320 322 323 323 324 324 325 325 326 327 327 327 327 328 327 327 327 326 325 324 324 324 323 323 323 323 322 322 322 322 322 322 322 322 322 321 321 320 320 319 318 318 318 318 318 317 317 316 316 316 316 316 316 315 314 312 312 312 312
321 323 325 323 323 322 321 321 321 321 321 320 319 319 317 318 321 319 317 321 326 323 323 322 317 314 312 310 309 310 312 314 314 315 315 315 316 317 318 319 321 322 323 324 324 325 326 326 327 326 327 327 326 326 326 325 325 324 323 323 323 322 322 322 321 321 321 321 321 321 321 321 321 321 320 320 319 318 318 317 317 317 316 316 315 315 314 314 314 314 314 314 312 311 311 312 312
323 327 325 323 324 323 321 321 319 318 318 319 320 318 316 317 319 317 317 324 326 325 325 323 322 321 315 310 310 310 311 312 313 314 313 313 314 315 316 317 319 320 321 322 323 324 325 326 326 326 326 326 325 325 325 324 324 323 323 323 322 321 321 321 320 320 320 320 320 320 320 320 319 319 319 319 318 317 317 316 316 316 314 314 313 312 312 312 312 313 313 312 311 310 310 311 311
324 326 323 324 326 325 320 319 319 318 317 318 318 317 316 316 317 318 318 322 324 326 327 325 326 328 325 317 309 308 309 309 311 313 313 312 313 314 315 316 317 318 320 321 322 323 324 324 324 325 325 325 323 324 324 324 323 323 322 322 321 321 320 320 320 319 319 319 319 319 319 318 318 318 317 317 317 316 315 315 315 314 312 311 311 310 310 310 310 310 311 310 308 307 308 309 308
323 323 323 327 326 323 321 321 320 319 317 315 317 318 317 316 316 318 320 320 320 323 327 326 327 329 329 321 309 307 307 307 309 312 312 312 313 314 315 316 316 317 318 319 321 322 322 323 323 323 323 323 322 322 323 323 322 322 321 321 321 320 319 319 319 318 318 318 318 317 317 316 316 316 316 316 315 314 314 314 313 312 310 309 308 308 308 307 306 306 307 307 306 305 306 306 306
322 322 322 326 323 320 322 323 321 320 317 316 317 317 317 315 315 317 318 316 316 322 326 325 326 326 326 321 310 307 307 307 308 309 311 311 312 313 314 315 315 316 317 318 319 320 322 322 322 322 321 321 321 321 322 321 321 321 321 320 320 319 319 318 318 317 317 317 317 316 316 315 315 314 314 314 313 313 313 312 311 309 308 308 306 305 304 304 302 302 303 303 302 302 302 303 303
321 322 321 323 322 320 322 322 321 320 318 317 317 315 315 313 314 318 318 315 315 321 324 323 323 319 316 314 310 309 310 309 308 308 310 311 311 312 313 314 314 315 316 316 317 319 320 321 321 321 321 320 319 320 320 320 320 320 320 319 319 319 318 317 317 316 316 316 315 315 315 314 314 313 313 312 312 312 312 311 309 308 307 306 304 302 301 300 299 299 299 299 299 299 299 299 300
319 320 322 321 320 319 318 318 318 318 318 318 316 313 313 314 315 317 317 314 314 320 323 321 317 312 311 315 314 311 311 309 308 308 310 311 312 313 313 313 314 314 315 315 316 317 319 320 320 320 320 320 319 319 319 319 319 319 319 318 318 318 317 317 316 315 315 314 314 314 313 313 313 312 312 312 311 310 310 308 306 305 304 303 302 300 299 297 296 295 296 296 296 296 296 296 297
319 319 321 319 319 318 317 317 316 316 315 313 313 313 313 314 313 313 313 312 314 319 321 319 318 317 318 321 317 312 310 309 307 308 309 310 311 312 311 312 313 313 314 315 315 316 317 319 319 319 319 319 319 319 318 318 318 318 318 318 317 317 316 316 315 315 314 313 313 313 312 312 312 311 311 310 308 308 307 305 303 302 301 300 299 298 297 296 295 294 294 294 294 294 294 294 295
321 318 319 318 317 318 317 318 316 314 312 310 311 312 313 312 310 310 311 310 312 317 318 317 319 323 322 320 317 313 312 310 308 307 308 309 309 309 310 311 311 312 313 314 314 315 316 317 317 318 318 318 318 318 318 318 317 317 317 317 316 316 315 315 315 314 313 312 311 311 311 311 311 311 310 306 303 304 303 301 300 298 298 297 297 296 295 295 294 293 293 293 293 293 293 293 293
317 314 314 314 313 313 313 314 314 312 310 310 310 311 312 310 309 310 311 312 313 315 317 317 317 320 320 318 314 312 312 311 309 308 308 307 307 308 309 309 310 311 312 312 313 314 314 315 316 317 317 317 317 317 317 317 317 317 316 316 315 315 314 314 313 312 311 310 310 310 310 310 310 309 305 300 299 300 298 297 296 295 295 295 294 294 293 293 292 292 292 292 292 292 292 291 291
310 310 311 311 310 311 310 310 312 310 310 311 310 310 311 309 309 309 311 315 315 315 318 318 316 316 316 315 312 311 311 310 308 308 307 306 306 307 308 309 309 310 311 312 313 313 313 314 315 316 316 316 316 316 316 316 316 315 316 315 314 314 313 312 311 311 310 309 309 309 309 309 308 304 299 296 296 296 294 294 293 292 292 292 292 291 291 291 291 291 291 291 291 291 291 290 290
308 310 310 311 311 311 310 310 312 310 310 312 311 311 311 310 311 309 311 316 314 313 318 316 313 312 311 312 311 310 309 308 308 307 307 307 307 308 308 308 309 309 310 311 311 311 312 313 314 315 315 314 315 315 315 315 315 314 315 314 314 313 312 312 311 310 309 307 307 308 308 306 301 296 295 294 294 293 292 292 291 291 291 290 290 290 290 290 290 290 290 290 290 290 290 290 289
308 309 310 311 312 311 310 311 312 310 311 313 311 312 312 311 311 310 312 315 312 312 316 316 315 312 310 311 310 310 309 308 308 307 308 308 308 307 307 308 308 308 309 309 310 310 311 312 312 313 313 314 314 314 314 314 314 313 313 313 313 312 311 311 310 309 308 305 303 304 303 298 295 293 293 293 292 291 291 290 290 290 290 289 289 289 289 289 290 290 290 290 290 290 289 289 289
310 309 310 310 311 311 310 313 312 309 310 311 311 312 311 310 311 311 311 312 311 312 314 313 313 311 309 309 309 309 308 306 306 307 308 308 308 308 307 307 307 308 308 308 309 310 310 311 311 311 312 312 313 312 312 313 313 312 312 312 312 312 311 310 309 308 307 304 300 299 297 294 293 292 292 291 290 290 290 291 291 290 289 289 289 289 288 289 289 289 289 289 289 289 289 289 288
314 312 311 312 313 310 310 314 313 310 310 309 310 313 312 309 310 311 310 310 309 310 312 311 310 309 308 308 308 308 307 304 303 304 306 307 307 308 307 308 307 307 308 308 309 308 309 309 310 310 310 311 312 312 311 311 312 311 311 311 311 311 310 309 308 307 307 305 301 297 295 293 292 291 290 290 290 290 291 291 290 289 289 289 288 288 288 288 289 289 289 289 289 289 288 288 288
313 311 311 312 312 310 311 315 313 312 311 309 310 313 313 311 310 310 307 308 308 309 311 312 310 310 308 307 306 306 307 306 304 303 304 305 307 307 308 308 307 307 307 307 308 307 308 308 308 309 309 310 311 311 310 310 310 310 310 310 310 310 309 309 308 307 306 304 301 297 294 293 292 290 290 290 290 291 291 291 290 289 289 288 288 288 288 288 288 288 288 288 288 288 288 287 287
312 311 310 310 310 310 311 313 314 312 311 311 312 311 311 310 310 312 310 308 309 310 311 311 310 309 307 307 306 306 306 306 307 303 302 304 306 306 307 307 307 307 307 307 307 307 307 307 307 308 308 309 309 309 309 309 309 309 308 308 309 309 309 308 307 306 304 302 299 296 294 293 291 290 289 290 291 291 291 291 290 289 288 288 288 288 288 288 288 288 288 288 288 288 287 287 286
312 312 311 310 310 311 311 311 313 313 312 313 314 313 311 310 309 312 314 312 311 311 310 309 309 309 308 306 306 307 306 306 306 302 301 303 304 305 305 305 306 306 306 306 307 307 307 307 306 306 307 307 308 308 307 307 307 307 306 306 306 306 305 304 304 303 301 299 297 295 294 292 291 290 290 290 291 291 291 290 289 289 288 288 288 288 288 288 288 287 287 287 287 287 287 286 286
312 311 310 311 311 311 311 312 314 313 313 313 313 312 311 311 310 311 314 313 312 311 308 307 307 308 308 306 305 305 305 306 304 300 301 303 303 304 304 304 305 305 306 306 306 306 306 306 306 305 305 305 305 305 305 305 304 303 303 302 302 301 301 300 300 299 297 296 295 294 293 293 292 291 290 291 291 291 290 289 289 288 288 288 288 288 288 287 287 287 287 287 287 286 286 286 285
310 310 311 311 311 311 310 312 315 313 312 313 312 312 311 310 310 310 312 312 311 310 308 308 307 306 307 307 307 306 305 305 302 300 301 302 303 303 303 304 304 304 304 305 305 306 306 306 305 304 304 303 303 304 303 303 302 301 300 299 298 299 299 298 297 295 295 294 293 293 293 293 292 291 291 291 290 290 290 289 289 288 288 288 288 288 288 287 287 287 287 287 286 286 285 285 285
308 309 310 309 309 310 309 309 312 313 311 311 311 312 311 310 310 310 310 311 310 309 309 308 307 306 306 306 307 307 306 305 304 303 301 300 302 303 303 303 303 303 304 304 305 305 305 305 305 304 303 302 303 303 303 302 302 302 300 298 298 298 298 298 297 295 294 293 293 293 292 292 292 291 291 290 290 290 289 289 288 288 288 288 288 287 287 287 287 287 286 286 286 286 285 285 285
308 309 309 309 309 309 309 310 310 310 311 313 312 312 310 309 309 309 309 309 309 308 308 307 306 306 305 305 305 306 306 305 305 304 300 298 300 301 302 302 302 303 303 303 304 304 304 304 304 304 303 302 301 301 301 301 300 301 300 299 299 298 297 296 295 294 293 293 292 292 292 292 291 291 290 290 290 289 289 289 288 288 288 287 287 287 287 287 287 287 286 286 286 285 285 285 285
309 310 310 310 310 310 311 312 310 308 310 313 311 309 308 307 308 307 307 306 305 305 305 305 304 304 304 304 304 304 304 304 302 302 300 297 297 298 300 301 302 302 302 302 303 303 303 303 303 303 302 301 300 299 299 299 299 298 298 299 298 297 296 295 293 292 292 292 292 292 291 291 290 290 290 290 290 289 289 289 288 288 287 287 287 287 287 287 287 287 286 286 286 285 285 285 285
310 310 310 310 310 310 311 311 309 308 308 309 309 309 308 307 308 307 306 304 304 304 304 305 305 302 302 303 301 300 300 299 297 297 296 296 295 296 298 300 301 300 301 301 301 302 302 302 302 301 300 299 298 298 297 297 297 296 296 295 295 294 293 292 291 290 290 290 291 291 290 290 290 290 290 290 290 289 289 289 288 288 287 287 287 286 287 287 286 286 286 286 286 286 286 285 285
309 308 309 310 310 310 310 308 307 309 310 307 307 310 308 306 308 309 308 308 308 306 307 308 306 301 299 299 296 294 294 293 293 293 293 293 292 293 295 298 299 299 300 300 300 300 300 300 300 299 299 298 297 297 296 297 297 296 295 294 293 292 291 290 290 290 290 290 290 290 290 290 290 290 290 290 289 289 289 288 288 288 287 287 286 286 286 286 286 286 286 286 286 286 286 285 285
308 309 311 310 309 309 309 307 307 311 311 305 304 308 307 304 306 309 310 310 309 308 308 305 301 297 295 294 292 291 291 290 291 291 291 291 291 292 295 297 298 298 298 298 299 299 299 299 299 298 298 297 296 296 296 296 296 296 295 295 294 292 291 291 291 291 290 290 290 289 290 289 289 289 289 289 289 289 289 288 288 288 287 287 286 286 286 286 286 286 286 286 286 286 286 286 286
308 310 311 312 310 309 308 307 308 309 307 304 303 305 306 305 304 307 307 306 307 307 306 302 298 295 292 291 290 290 289 289 289 290 290 290 290 290 293 295 297 298 298 298 298 298 298 298 298 298 297 296 296 296 296 296 296 296 295 295 294 293 292 291 291 290 290 290 289 289 290 290 289 289 289 289 289 289 288 288 288 288 287 287 286 286 286 286 286 286 286 286 286 286 286 286 286
309 308 307 308 309 308 307 308 308 306 304 306 305 302 306 307 304 304 304 303 305 305 303 300 295 293 291 290 290 289 288 288 288 288 288 288 288 288 289 291 294 296 297 297 297 297 297 297 297 297 296 296 295 295 295 295 296 296 295 294 293 293 292 291 291 290 290 289 289 289 289 290 290 289 289 289 288 288 288 288 288 287 287 287 286 286 286 286 286 286 286 286 286 286 286 286 286
306 304 304 304 305 304 305 306 307 306 304 306 305 303 306 307 304 303 304 304 305 304 302 298 294 291 290 289 289 288 288 287 287 287 286 286 287 287 287 289 290 291 293 295 296 296 296 296 296 296 296 295 295 295 295 294 295 295 294 294 293 292 291 291 291 290 289 289 289 289 289 290 291 290 290 290 289 288 288 287 287 287 287 287 286 286 286 286 286 286 286 286 286 286 286 286 285
302 303 303 303 302 302 303 304 305 306 306 306 306 304 305 306 307 306 305 303 302 302 301 297 292 290 289 288 287 287 286 285 285 285 284 284 285 285 285 286 287 289 290 291 292 293 294 295 295 295 295 294 294 294 294 294 294 294 294 294 293 292 291 291 290 290 289 289 289 289 289 290 291 290 290 290 289 288 287 287 287 287 287 287 287 287 286 286 286 286 286 286 286 286 286 286 285
301 303 304 304 304 303 304 305 305 306 307 306 304 303 304 306 308 307 305 301 298 299 300 297 292 289 288 287 286 285 284 283 283 283 282 282 283 283 283 283 283 285 287 288 289 290 291 292 293 293 293 293 293 293 293 293 293 293 293 293 293 292 291 291 290 290 290 289 289 289 289 290 290 291 291 291 289 288 288 288 287 287 287 287 287 287 287 287 286 286 286 286 286 286 285 285 285
301 302 303 306 306 306 306 306 305 306 306 303 300 301 303 304 304 304 303 300 296 295 295 292 290 288 287 285 284 283 283 282 282 281 281 281 281 281 281 281 281 282 283 285 287 289 289 290 290 290 290 291 291 292 292 293 293 293 293 293 292 292 291 291 291 291 290 290 289 289 289 290 291 291 292 291 291 290 290 290 290 289 288 287 287 287 287 287 287 286 286 286 286 285 285 285 285
302 303 304 307 307 308 308 306 305 305 304 301 298 300 304 305 303 302 300 296 293 291 290 289 288 286 285 284 283 282 282 282 281 281 280 280 280 280 280 280 280 280 280 281 284 286 288 288 289 289 289 289 290 290 291 291 291 292 291 292 292 291 291 291 291 291 290 290 290 290 290 291 292 293 293 293 293 293 293 293 292 291 289 288 287 287 287 287 287 287 286 286 286 285 285 285 285
303 303 304 307 308 308 308 306 307 307 305 301 299 301 307 308 301 296 294 292 290 290 288 287 286 285 284 283 282 282 281 281 280 280 280 280 280 279 279 279 279 279 279 280 281 282 284 286 287 288 288 288 289 289 289 290 290 290 290 290 290 290 290 290 290 290 290 290 290 290 290 291 292 293 294 294 294 294 294 294 292 290 289 288 287 287 287 287 286 286 286 286 286 286 285 285 285
302 301 304 307 306 306 307 306 305 305 305 304 303 303 306 303 296 292 292 291 289 288 287 286 285 284 283 283 282 282 281 280 280 280 279 279 279 279 279 279 279 279 279 279 279 280 281 282 284 285 286 287 288 288 288 289 289 289 289 289 289 289 289 289 289 289 289 289 290 290 290 291 292 292 293 293 293 293 293 292 291 289 289 288 288 288 287 287 287 286 286 286 286 286 286 285 285
302 302 305 305 302 304 306 306 303 303 305 305 304 305 305 301 296 293 292 291 290 288 286 285 284 283 283 282 282 281 280 280 279 279 279 279 279 279 278 278 278 278 278 278 278 279 279 280 281 282 284 285 286 286 287 288 288 288 288 288 289 289 289 289 288 288 288 288 288 289 289 289 290 290 291 291 291 291 291 291 291 290 289 289 289 289 288 287 287 286 286 286 286 286 286 285 285
304 304 304 302 301 303 305 305 304 304 305 305 303 305 306 304 301 296 291 291 290 287 285 284 283 283 282 282 281 281 280 280 279 279 279 279 278 278 278 278 278 278 278 278 278 278 278 279 279 279 280 281 282 283 284 285 286 286 286 287 287 287 288 288 288 288 288 287 287 287 287 287 288 288 288 289 289 289 289 290 290 290 290 289 289 289 288 288 287 287 286 286 287 286 286 286 285
303 303 302 301 304 305 304 304 305 305 305 306 303 301 303 304 303 297 291 290 289 287 284 283 282 282 281 281 280 280 280 279 279 279 278 278 278 278 278 278 278 278 277 277 277 277 277 278 278 278 278 278 279 280 281 282 283 283 283 284 285 285 286 286 286 287 287 287 287 286 286 286 286 286 287 287 287 287 288 288 288 289 289 289 289 288 288 288 287 287 287 287 287 287 286 286 286
302 303 302 302 303 304 304 304 304 304 305 306 304 302 304 300 294 291 289 288 288 286 283 282 282 281 280 280 280 279 279 279 279 278 278 278 278 277 277 277 277 277 277 277 277 277 277 277 277 277 277 278 278 278 279 279 279 280 281 281 282 282 283 283 284 284 284 284 285 285 286 286 286 286 286 286 286 286 287 287 287 287 287 288 288 288 288 288 288 287 287 287 287 286 286 286 285
302 303 303 303 302 302 303 303 303 304 305 306 304 305 304 294 287 288 288 287 286 284 283 282 281 280 280 280 279 279 279 279 278 278 278 278 277 277 277 276 276 276 276 276 276 276 276 276 276 276 276 276 276 276 277 277 277 278 279 279 279 279 280 280 281 281 281 281 282 282 283 284 284 285 285 285 285 285 285 285 285 286 286 286 286 287 287 286 286 286 286 286 286 285 285 285 285
300 302 303 304 304 303 303 304 303 302 303 304 303 306 302 290 286 287 286 285 284 283 282 281 280 280 280 279 279 279 279 278 278 278 277 277 277 276 276 275 275 275 275 276 276 276 276 276 276 276 275 275 275 275 275 275 276 276 277 277 277 278 278 278 279 279 279 279 279 280 280 281 282 282 283 284 284 284 284 284 284 284 284 284 284 284 285 285 285 285 285 284 284 284 284 284 284
Wind_Speed
7 9 9 7 3 3 4 4 2 2 1 2 3 1 4 4 3 1 3 3 1 3 2 1 2 3 2 2 5 6 5 6 6 4 3 3 6 16 20 11 14 26 29 28 26 25 23 22 21 20 17 16 15 14 13 11 12 14 15 14 13 13 13 13 13 12 12 12 12 12 11 11 12 12 12 12 14 14 15 16 17 17 17 17 17 17 15 15 16 16 16 16 16 15 15 14 15
7 8 8 6 2 4 1 2 1 2 0 4 3 3 4 3 2 5 8 7 4 2 1 2 2 1 1 1 1 1 4 4 4 2 3 1 3 15 19 13 19 28 29 27 27 26 23 23 21 19 17 16 16 15 14 12 12 13 13 12 11 11 12 14 13 13 12 12 12 12 11 12 12 12 13 13 14 15 17 17 17 17 17 17 18 18 15 15 16 16 16 15 15 15 14 14 14
7 6 4 2 1 2 1 2 1 2 3 6 4 3 3 2 6 9 9 8 7 1 3 1 1 0 1 0 2 2 4 3 2 2 2 4 4 16 20 14 22 27 29 28 27 26 24 23 21 20 17 17 16 15 15 14 14 13 12 12 11 11 12 14 13 13 12 12 12 12 11 12 13 13 13 14 14 16 17 17 17 18 18 18 18 18 16 15 15 15 16 16 15 15 14 13 13
6 5 5 7 3 2 2 1 2 3 4 3 2 5 4 5 10 10 8 7 6 1 0 0 0 1 3 5 3 0 4 3 4 4 2 7 10 18 20 17 24 27 28 28 27 25 23 23 22 20 18 17 16 16 16 15 15 14 14 13 13 11 12 12 12 12 12 13 13 12 12 12 13 13 13 14 15 16 17 18 17 17 18 18 18 19 18 17 17 16 16 15 14 15 14 14 13
6 5 7 7 2 1 2 1 2 3 5 3 2 5 6 8 10 9 7 6 5 3 3 1 2 1 2 4 1 1 3 1 3 5 3 8 13 19 19 20 26 27 28 27 27 25 23 23 21 19 18 17 17 16 16 16 15 15 16 15 14 13 12 12 12 12 13 14 13 12 12 13 13 13 14 15 16 17 18 18 18 18 19 20 19 19 19 18 18 17 16 15 14 15 15 14 14
4 4 6 5 1 1 1 1 2 3 5 5 3 5 7 7 7 6 6 7 5 5 5 2 2 0 1 2 2 3 3 1 1 5 5 7 16 20 20 22 26 27 27 27 27 25 23 22 21 19 18 18 18 17 16 16 15 16 16 16 15 14 14 13 13 13 13 13 13 13 13 14 14 14 15 16 17 18 19 19 19 19 20 21 20 19 19 18 18 18 18 17 15 15 14 14 14
4 4 1 2 1 2 2 3 4 4 4 6 5 7 8 5 5 3 6 5 3 4 4 3 2 1 3 1 1 4 4 3 1 3 5 10 19 21 21 24 26 27 27 27 26 24 23 22 21 20 19 19 18 18 17 17 16 16 16 16 17 17 16 15 14 13 13 13 14 14 13 14 15 15 16 17 18 19 19 20 20 20 20 20 19 19 19 18 19 19 19 17 16 15 14 14 14
6 4 1 3 1 2 2 4 4 4 4 4 4 8 6 4 4 2 5 2 1 4 3 3 3 1 4 1 1 3 4 6 4 3 6 13 20 21 22 25 26 27 27 27 25 24 23 22 21 20 21 20 18 19 18 17 17 17 16 17 17 18 18 16 15 14 13 13 14 14 14 14 15 16 17 19 20 20 19 19 20 20 18 18 19 19 18 18 19 19 18 17 15 15 14 14 14
4 2 1 2 2 2 2 3 3 3 4 5 5 8 5 4 4 3 6 3 3 3 4 5 6 3 3 1 3 3 2 7 5 4 10 16 21 22 23 26 27 28 28 27 26 25 24 24 23 21 22 20 18 18 18 18 18 18 17 18 17 18 19 18 18 15 13 13 14 14 14 14 16 17 17 19 20 19 19 19 20 20 18 17 18 19 19 19 19 18 17 16 15 14 13 13 14
2 1 2 1 2 3 5 3 3 3 5 5 6 8 5 4 4 4 6 6 4 3 4 2 5 5 2 1 4 2 2 6 7 8 13 17 21 21 22 25 26 28 28 27 27 26 26 25 25 23 22 20 18 18 18 18 19 18 18 18 18 18 18 19 19 16 14 14 14 14 14 15 16 17 17 18 19 19 19 19 19 19 18 17 17 18 18 18 17 17 17 15 14 13 12 12 14
0 2 2 1 2 5 6 5 5 4 5 4 4 7 7 5 2 3 5 5 4 4 3 3 2 5 2 3 4 2 2 6 9 12 16 18 20 21 22 23 24 26 28 28 28 27 27 26 25 24 23 20 18 18 18 19 19 19 20 19 18 17 18 18 19 17 15 14 14 13 14 15 16 16 16 17 18 18 18 19 19 18 18 17 16 17 17 17 16 16 15 14 13 13 12 12 13
1 1 3 3 4 5 5 5 6 6 5 3 4 7 5 5 4 4 6 5 3 3 6 5 3 5 4 4 4 3 3 6 9 13 18 19 19 20 21 23 24 25 26 27 28 27 27 26 26 25 23 21 19 19 19 20 21 21 20 19 18 17 17 16 17 17 16 14 13 14 13 14 15 16 16 16 17 17 18 18 18 17 17 16 16 16 17 16 15 15 14 13 12 12 12 11 13
2 2 4 3 4 3 4 4 4 4 5 3 6 5 3 6 5 7 6 4 3 2 7 7 3 3 4 4 3 5 4 9 11 14 19 18 18 19 19 21 23 24 25 26 27 27 26 26 26 25 23 21 19 20 21 22 22 21 20 19 19 18 17 16 16 17 16 14 14 13 13 14 14 15 15 15 16 18 18 16 16 16 16 16 16 16 16 16 15 15 14 13 12 11 11 11 14
3 2 4 3 1 2 4 3 2 3 5 5 5 2 2 3 5 6 5 3 6 5 5 5 5 2 3 2 3 4 4 12 15 18 19 18 18 18 18 20 21 23 23 24 26 26 26 26 26 25 24 21 20 20 22 23 22 21 21 21 20 19 18 18 17 17 16 15 14 14 14 14 13 14 15 14 16 17 16 15 15 15 15 15 15 15 14 14 14 14 14 12 10 11 10 11 15
4 2 3 2 1 1 3 3 3 5 5 5 5 2 1 4 3 3 4 5 7 4 1 2 5 3 3 4 4 4 7 16 19 20 21 19 18 18 18 19 21 22 22 23 24 25 26 25 25 25 23 22 20 20 22 23 22 22 22 22 21 20 20 20 19 19 19 18 17 17 17 15 14 15 15 14 15 15 14 14 14 13 13 13 13 13 12 12 13 13 13 11 9 10 9 12 15
2 3 3 1 3 3 3 3 2 3 5 5 4 1 1 5 2 1 4 4 3 3 1 3 3 1 3 6 4 4 7 19 21 21 21 19 18 18 18 20 21 21 22 23 24 25 25 25 25 24 23 23 22 21 22 23 24 24 23 22 21 21 22 22 21 21 20 20 19 19 18 16 15 14 14 13 14 14 13 14 14 12 11 11 11 12 11 11 11 12 13 11 10 10 10 14 15
2 3 1 4 3 4 3 3 4 4 5 6 5 1 3 6 1 2 1 3 2 3 2 4 2 0 3 3 3 3 10 21 22 22 21 19 18 17 18 19 21 21 23 24 25 25 25 25 26 26 25 24 23 24 24 24 24 24 24 23 23 23 23 23 22 22 21 21 21 20 19 19 18 17 16 14 14 14 12 12 13 11 10 12 12 11 10 10 11 12 12 12 12 11 11 15 15
1 2 3 6 3 4 5 6 6 4 3 5 5 3 6 5 4 1 1 3 1 2 3 4 5 3 3 2 4 5 18 23 22 23 20 18 18 17 19 20 21 22 24 25 26 27 27 27 27 27 27 24 24 26 26 25 25 25 25 24 24 24 23 23 23 23 23 22 22 22 22 22 22 20 18 17 16 15 14 13 14 13 11 13 14 12 10 10 12 13 14 14 13 10 12 16 15
2 2 3 6 3 4 6 7 6 4 4 6 6 3 5 6 3 0 2 5 3 3 5 4 6 8 4 0 4 13 21 23 23 23 20 19 19 19 20 20 21 23 25 26 27 27 28 28 28 29 28 26 26 28 28 27 27 27 26 25 25 24 24 24 23 23 24 24 23 23 23 23 22 21 20 19 17 17 17 17 17 16 13 13 14 14 12 12 14 16 17 15 12 9 12 15 14
3 3 5 6 5 6 6 6 7 7 6 6 7 5 4 5 2 1 3 8 7 6 5 4 6 10 8 3 8 15 19 20 21 21 20 20 21 21 22 22 24 26 28 28 28 28 28 29 30 30 29 29 29 31 31 29 28 27 27 26 26 25 25 24 23 23 23 23 23 22 22 22 21 21 21 20 19 19 19 19 19 19 17 15 16 18 17 16 17 18 18 15 10 10 13 15 14
2 4 6 5 4 6 6 7 8 8 6 6 6 6 7 4 3 3 3 6 8 5 6 9 9 12 12 6 8 13 15 15 18 19 19 20 21 23 25 26 27 27 27 27 29 30 29 28 29 29 30 31 31 32 33 32 30 29 28 27 27 26 25 25 24 24 23 23 22 22 22 21 21 22 22 21 20 20 21 21 21 20 20 18 19 20 19 17 16 14 15 14 11 11 13 14 14
2 4 5 5 4 4 6 7 8 8 5 5 5 5 7 2 1 4 6 9 8 5 8 11 12 14 10 7 9 10 11 12 14 17 19 21 23 24 26 26 25 24 25 28 31 31 31 30 29 29 29 31 32 32 32 33 33 32 31 29 28 26 26 25 25 24 23 23 22 22 22 22 22 22 21 21 21 21 21 22 22 21 20 20 19 19 18 16 14 12 13 14 13 13 14 14 14
4 5 4 5 6 6 5 4 6 6 5 6 4 4 3 2 5 5 8 13 10 6 8 10 11 9 4 8 10 10 11 12 14 19 23 24 25 28 30 28 26 26 26 28 31 32 33 32 31 31 30 30 31 32 32 32 31 31 30 30 29 28 27 26 25 24 23 22 22 22 23 23 23 21 20 20 20 21 22 22 22 21 21 20 19 18 17 16 15 15 16 15 14 14 14 14 14
5 5 4 6 7 7 5 4 6 4 6 8 2 4 4 4 7 3 9 15 9 7 8 6 5 2 7 9 10 12 14 15 18 25 29 29 32 34 30 27 28 26 26 29 31 33 34 34 33 33 32 32 31 31 31 31 31 30 29 29 29 28 28 27 25 24 23 23 23 23 23 23 23 21 21 20 20 22 23 23 22 21 21 20 19 18 16 15 15 16 16 16 15 15 14 14 14
6 6 5 5 6 7 5 6 7 5 6 5 3 7 8 9 6 5 15 15 7 8 10 6 2 5 7 8 11 12 12 14 17 23 26 29 30 27 23 25 26 26 29 32 31 32 35 36 35 34 34 34 33 32 31 31 31 31 30 30 29 28 27 27 26 24 23 23 23 23 23 23 23 22 22 21 21 23 24 23 22 21 21 20 19 18 16 15 15 16 16 16 15 15 14 14 14
6 5 5 5 6 6 5 7 6 6 5 2 4 9 10 8 4 10 19 14 8 9 9 6 5 6 8 9 12 13 13 14 16 20 25 26 22 20 24 27 26 30 34 33 31 32 35 36 36 36 36 35 35 34 33 32 31 30 30 30 30 28 27 26 25 25 24 24 24 24 24 24 24 23 23 22 23 24 24 23 22 21 20 20 18 17 16 15 15 15 16 16 15 15 15 15 15
3 3 5 6 7 7 4 6 5 5 4 4 6 10 10 4 2 11 11 5 7 8 7 7 7 9 10 9 10 11 12 16 19 21 19 17 17 23 28 27 29 34 33 31 33 34 34 36 37 37 37 36 36 35 35 34 33 32 31 30 30 28 27 26 25 25 24 24 25 25 25 25 24 24 23 23 23 24 23 23 22 21 20 19 17 16 15 14 14 15 15 15 15 15 15 15 15
3 4 7 8 6 6 5 6 6 4 4 6 7 7 10 1 4 15 5 4 3 7 8 9 8 10 9 10 9 8 10 16 19 16 13 16 23 29 30 33 36 36 34 36 36 34 33 36 38 38 37 37 36 36 36 35 34 33 32 31 30 28 27 26 25 25 24 24 26 26 26 26 25 24 24 24 23 23 23 22 21 20 19 18 17 16 15 15 15 15 15 15 15 15 15 15 15
3 2 5 9 7 8 8 6 5 4 4 5 6 5 10 6 14 19 5 2 2 5 8 8 7 9 7 8 8 7 9 12 12 13 18 24 29 31 32 37 37 34 36 36 33 31 34 37 38 38 37 37 37 37 37 36 35 33 32 31 30 29 27 26 26 25 25 25 25 26 27 27 26 25 24 24 23 22 22 21 20 19 18 17 17 16 16 16 16 16 16 15 15 15 16 16 15
3 1 1 6 7 8 6 4 4 5 5 6 6 7 11 13 20 14 2 3 2 3 8 7 7 8 7 7 7 8 10 9 11 18 25 26 26 27 29 32 32 33 34 31 31 34 36 36 36 37 37 38 38 37 37 37 36 34 33 32 31 30 28 27 26 26 26 24 25 26 27 27 27 25 24 23 22 22 21 20 19 18 18 17 17 17 17 17 17 17 17 17 16 16 16 16 16
4 2 2 2 3 7 3 0 2 3 4 6 7 8 11 17 16 5 1 3 3 5 8 7 7 7 6 6 6 8 8 8 13 19 21 20 21 23 26 28 29 32 32 31 35 36 35 35 35 36 37 38 37 37 37 37 36 35 34 33 32 31 29 28 28 28 27 26 26 27 28 28 27 26 24 23 22 21 20 19 19 19 18 18 18 17 17 17 17 17 18 18 18 17 16 16 16
1 3 6 2 4 7 5 3 4 5 4 4 8 6 10 17 11 0 2 3 2 4 8 7 7 8 7 7 6 8 8 8 13 18 21 21 22 25 28 30 30 32 33 33 33 32 33 35 36 36 37 37 37 37 37 36 36 35 34 33 32 31 30 29 29 29 29 28 28 28 28 28 27 26 25 23 22 21 20 19 20 20 19 19 19 18 18 18 18 18 18 19 19 18 17 17 16
1 3 8 5 5 6 5 5 3 4 3 1 7 6 9 12 2 3 2 5 3 4 7 7 8 8 8 7 7 7 8 8 10 16 22 25 27 30 32 32 31 31 32 32 31 31 33 34 35 36 37 38 38 37 36 35 35 34 34 33 32 31 31 30 30 30 30 30 30 29 28 27 26 26 25 24 22 21 20 20 20 20 20 20 20 19 19 19 19 19 19 19 18 18 19 18 17
3 2 6 5 5 5 4 5 4 3 1 3 5 6 13 14 4 2 4 3 3 7 8 9 8 8 8 7 7 7 7 8 9 12 21 26 30 34 33 31 30 30 31 32 32 32 32 33 35 36 36 37 37 37 36 35 34 33 32 32 32 31 31 31 31 32 32 31 31 30 28 26 26 26 25 24 23 22 21 20 21 21 21 21 21 20 20 19 19 19 20 19 18 18 19 19 18
4 4 5 5 4 6 5 4 4 4 1 4 5 7 15 19 11 6 7 3 5 9 9 8 8 8 9 7 7 8 8 9 11 14 20 24 28 30 29 28 28 28 29 30 31 31 31 32 34 34 35 35 36 36 35 33 32 31 31 30 30 30 31 31 31 32 33 32 31 30 28 26 26 26 25 25 24 23 22 21 22 22 22 22 21 21 21 20 20 20 20 20 19 17 17 18 18
6 5 4 5 5 5 5 4 5 2 3 7 8 10 15 20 15 6 7 7 7 10 9 7 8 8 9 8 8 8 9 10 12 14 17 19 22 24 23 24 26 26 27 29 31 31 32 33 33 34 35 35 34 34 34 33 31 30 29 29 29 29 30 30 30 31 31 31 30 30 28 27 26 26 26 26 25 24 23 23 23 23 23 23 23 23 22 22 21 21 21 21 21 18 17 18 18
3 3 3 5 6 7 5 4 6 4 3 8 9 11 15 19 15 7 7 8 7 11 11 10 9 8 8 9 10 9 9 10 9 9 12 14 17 18 19 22 23 24 26 28 30 33 34 35 35 35 35 34 35 35 36 35 34 31 29 29 29 29 29 29 29 29 29 29 29 29 28 27 27 27 28 28 27 26 25 24 24 24 24 23 23 23 23 22 22 22 21 21 21 20 20 19 19
4 4 5 6 6 8 6 5 7 5 4 8 8 10 16 17 14 9 8 8 9 12 12 12 11 9 8 9 11 11 8 8 7 7 9 11 13 15 17 19 22 24 26 29 32 35 35 35 35 35 35 35 37 38 38 37 37 35 32 31 30 29 29 30 30 30 30 29 28 27 27 27 29 29 29 29 27 27 26 25 25 24 24 24 24 24 23 23 23 22 22 22 21 21 21 22 22
5 3 4 7 5 6 7 6 6 3 4 6 7 9 15 15 12 10 8 9 11 12 12 12 10 9 10 10 10 9 8 9 8 8 9 11 12 12 15 19 23 26 27 30 32 32 33 34 36 36 36 37 37 37 37 36 35 33 31 30 29 28 28 29 29 29 30 29 27 26 27 28 29 29 29 29 28 27 26 25 24 24 25 25 26 25 25 24 24 24 24 24 23 21 20 22 26
4 5 4 7 5 3 5 4 3 2 4 5 4 6 12 11 8 9 10 10 10 11 11 10 9 10 11 9 7 7 8 9 10 10 9 10 12 11 13 18 22 23 25 28 30 31 33 35 36 35 35 35 35 34 34 32 30 29 27 25 25 25 24 25 25 24 26 27 28 28 28 29 29 29 29 28 27 26 25 24 24 25 26 26 26 26 27 26 26 26 26 26 25 23 21 23 27
5 7 7 7 7 7 8 4 3 3 3 4 3 6 10 6 4 8 7 4 6 8 8 9 10 7 5 7 7 7 8 8 10 11 11 10 11 13 14 16 17 19 23 26 28 29 29 30 31 31 31 31 31 31 31 30 28 25 23 19 19 20 18 20 22 22 24 26 29 29 29 29 28 27 27 26 26 25 24 24 24 25 26 26 26 27 27 27 27 27 27 28 28 26 24 25 28
5 7 10 12 11 9 9 4 3 4 4 3 3 3 6 2 2 6 5 4 6 5 5 10 9 6 8 7 7 7 8 8 8 9 10 10 10 14 15 13 13 15 17 19 21 23 23 23 25 26 27 28 29 29 30 29 28 27 25 23 22 21 19 21 25 26 26 27 28 29 29 28 27 26 25 25 25 24 24 24 24 25 25 26 27 27 27 27 28 28 29 29 29 28 25 25 28
5 5 9 12 10 8 8 4 1 1 4 2 2 2 6 5 4 6 4 4 7 7 9 8 5 8 7 7 7 8 8 8 8 8 9 10 11 11 11 8 7 8 9 10 14 17 18 18 21 23 25 26 27 28 28 29 29 29 29 28 27 26 25 24 26 26 26 27 27 27 27 27 26 25 24 23 23 24 24 24 25 25 25 26 27 28 28 28 28 29 29 30 30 29 26 25 28
5 5 6 8 7 7 7 5 4 3 3 2 1 3 4 8 6 4 2 5 8 11 10 5 8 8 8 8 8 9 9 9 9 9 11 12 12 13 13 9 4 1 3 5 9 13 15 16 18 21 23 24 26 27 28 30 30 30 30 28 26 26 25 23 22 22 23 24 24 24 25 25 24 23 22 21 22 24 25 25 25 25 25 26 27 28 28 29 29 29 29 30 30 30 29 27 26
6 3 5 5 5 6 5 4 4 1 2 3 3 3 1 7 6 1 2 4 9 11 7 6 8 8 9 9 10 10 10 10 10 11 12 12 15 18 19 18 12 6 2 4 7 11 13 14 16 19 21 23 25 27 28 29 30 30 29 27 25 23 21 19 18 19 20 21 22 22 23 24 24 22 21 21 22 24 26 25 25 25 25 25 26 28 28 28 28 29 30 30 31 32 31 28 26
4 3 4 2 2 1 2 3 3 2 2 4 4 4 2 6 7 3 1 4 7 8 4 5 7 8 9 9 10 10 10 10 10 10 11 13 17 22 24 25 23 16 9 4 6 9 12 13 15 18 20 22 24 26 28 28 29 28 28 27 25 21 19 17 17 18 18 20 21 21 23 24 24 23 22 22 23 25 25 25 24 24 25 25 26 27 28 28 28 29 29 30 31 31 31 30 28
1 4 1 2 2 3 3 1 3 2 4 4 7 8 5 3 6 3 3 2 2 5 3 4 7 9 9 9 9 10 10 10 10 11 12 16 22 27 29 29 28 25 18 12 7 6 9 12 15 17 19 21 22 24 26 27 27 27 27 27 25 22 20 19 18 19 19 20 21 23 24 24 24 24 23 23 24 25 25 25 24 24 24 25 26 27 27 28 28 28 28 29 30 30 31 31 30
2 2 1 1 2 2 3 3 2 1 5 4 4 5 5 4 5 4 3 1 3 4 4 5 7 8 8 9 9 10 10 10 10 11 12 15 20 25 28 29 29 30 26 22 16 9 6 7 11 14 15 17 19 21 23 24 25 25 25 25 24 23 21 21 21 21 21 22 22 23 23 24 23 23 23 23 23 24 25 25 24 25 25 26 27 27 28 28 27 28 28 28 29 30 30 30 31
3 2 2 1 2 1 1 1 0 3 5 3 1 0 2 5 6 7 6 4 6 4 4 5 7 8 8 9 10 9 9 10 11 11 11 12 13 17 22 25 27 29 29 28 24 18 13 9 6 7 7 8 12 16 18 21 22 23 23 24 23 22 21 21 21 21 21 22 23 23 24 24 23 24 25 25 25 25 25 25 25 25 26 27 28 27 28 28 28 28 27 28 28 29 29 30 30
3 2 3 3 1 1 3 2 0 3 4 3 2 1 1 4 4 4 3 5 5 6 7 7 8 9 9 9 9 9 11 11 11 11 12 12 12 16 20 22 25 27 29 31 30 25 21 17 13 11 9 5 4 8 11 14 16 17 18 19 20 20 20 20 20 20 21 21 22 23 24 24 23 23 24 25 26 26 26 27 27 27 28 27 27 27 27 28 28 28 27 27 27 27 27 28 29
2 2 3 2 3 2 3 2 2 3 3 2 1 2 2 2 1 3 4 5 6 7 7 7 9 8 7 8 10 11 12 11 10 11 12 12 15 18 21 23 25 27 29 32 32 31 28 25 21 18 15 11 6 2 3 6 8 10 12 12 13 15 16 17 18 19 20 20 21 22 23 24 23 23 22 22 23 26 27 28 28 28 28 27 26 27 27 28 28 28 28 27 27 27 26 27 28
1 1 2 1 2 2 1 2 3 2 2 2 2 2 4 3 3 4 5 6 8 8 8 9 10 8 8 9 11 11 11 11 10 11 12 13 16 20 22 24 26 27 30 32 33 33 31 29 27 24 21 17 12 9 5 2 3 5 6 8 9 10 11 12 13 14 16 18 20 21 22 23 23 22 21 20 20 22 23 24 25 26 26 26 26 26 27 27 28 28 28 28 28 27 27 28 28
0 1 2 2 3 3 1 2 0 2 1 2 2 3 4 1 2 2 5 8 8 8 9 10 10 10 10 10 10 10 9 10 11 11 11 13 16 19 22 25 26 28 30 31 32 32 32 32 31 30 28 24 21 17 12 9 6 5 3 2 3 5 7 8 9 10 11 13 15 17 19 20 20 21 21 20 19 19 20 21 22 23 24 25 26 26 26 26 27 28 28 28 28 28 28 29 29
2 1 2 1 1 3 2 1 1 0 2 3 2 4 4 0 2 1 5 8 7 7 8 9 9 10 10 10 9 10 10 9 10 11 11 13 16 19 21 23 26 27 29 30 31 32 33 33 33 34 33 31 28 25 22 18 15 14 12 9 6 4 2 2 4 6 7 9 10 12 14 15 16 18 19 20 20 20 21 22 23 23 24 25 25 26 26 26 26 27 28 28 28 28 29 30 30
2 2 1 1 1 1 1 1 2 1 2 3 2 2 3 3 2 4 6 6 4 6 7 8 10 10 9 8 9 10 10 9 9 10 10 12 16 19 20 21 24 27 29 29 30 33 34 34 34 34 34 33 33 32 30 28 25 23 21 18 15 13 10 8 5 3 1 2 3 6 9 10 12 13 15 17 18 20 20 21 23 23 24 25 25 25 26 26 27 28 28 29 29 29 30 31 31
2 0 0 1 2 2 1 1 1 0 1 3 2 2 2 3 2 4 7 5 3 4 6 8 8 8 7 7 8 9 9 9 9 9 9 12 16 19 20 21 22 24 27 29 31 33 34 34 34 35 34 35 35 35 34 33 31 30 28 26 24 22 19 17 14 12 10 8 5 1 2 5 8 9 11 12 14 16 18 20 21 22 23 24 25 25 26 27 28 29 29 30 30 30 31 32 32
2 1 1 2 1 1 1 1 1 1 2 2 2 3 3 1 1 2 3 4 4 5 6 6 6 7 7 7 8 8 8 9 9 9 9 11 16 19 20 21 21 22 25 28 29 31 32 33 33 33 34 35 35 34 34 33 32 32 32 31 30 28 27 25 23 21 20 19 16 12 9 4 0 3 5 7 9 11 13 15 18 19 21 22 23 24 25 26 27 28 29 30 30 30 31 32 31
2 2 3 2 2 0 2 3 1 1 2 2 2 4 3 0 2 2 3 5 5 6 7 6 6 7 7 7 8 8 8 9 9 9 9 11 15 18 19 21 22 24 25 26 26 28 30 31 31 31 32 33 32 31 31 31 32 32 32 32 31 30 29 28 27 27 26 25 23 21 18 15 12 9 5 1 2 5 8 10 12 14 16 18 20 21 22 24 26 27 27 28 29 29 30 31 30
Wind_Direction
294 315 315 313 341 34 26 65 78 309 85 271 261 213 260 239 246 291 266 269 251 244 226 143 123 137 154 188 205 215 198 185 186 165 229 220 143 161 167 168 172 172 169 167 168 170 167 165 169 172 175 175 176 175 173 173 169 167 170 172 171 177 179 173 170 171 168 165 167 168 165 160 155 153 155 152 148 146 144 140 137 136 134 131 126 123 127 126 120 117 115 111 109 107 106 105 103
275 294 302 308 0 88 20 64 120 288 73 258 264 183 259 300 267 244 238 236 222 244 12 70 68 109 85 46 174 258 239 226 190 193 270 177 149 176 168 163 173 172 170 168 168 171 166 167 173 175 177 175 176 175 172 172 169 166 169 170 169 170 170 167 163 162 160 162 165 162 161 159 155 155 156 150 147 148 143 140 137 134 132 129 125 123 129 126 120 118 115 112 108 106 106 105 105
253 267 260 206 89 97 85 50 171 204 198 236 258 242 274 310 239 241 236 233 247 287 53 77 59 86 97 249 231 194 238 283 185 216 269 191 186 178 170 166 173 172 170 167 168 170 167 169 176 177 176 177 176 176 174 173 170 168 169 167 164 161 159 159 153 153 153 156 159 156 158 158 155 156 157 152 149 147 142 140 137 134 131 128 125 126 129 125 121 120 115 111 109 107 106 107 106
246 250 200 159 114 38 91 120 176 161 211 219 248 263 245 239 240 249 253 251 273 301 53 209 236 223 157 212 240 294 244 277 205 190 194 204 189 174 170 166 172 173 170 167 168 170 168 172 179 178 178 178 177 181 182 177 173 169 167 163 158 157 157 156 155 156 157 157 157 157 158 156 156 160 159 153 151 145 141 139 136 134 130 127 127 127 127 125 124 121 116 114 114 111 111 110 107
254 231 190 162 127 137 127 184 145 169 219 183 209 259 232 228 241 256 270 280 282 222 194 151 259 261 148 225 222 285 239 264 232 205 212 204 178 171 170 167 172 174 173 170 170 172 172 175 182 181 180 181 181 186 185 179 177 171 166 162 158 160 160 162 162 160 161 159 157 158 159 159 161 163 157 153 151 145 141 139 136 132 127 126 126 126 125 128 129 125 121 122 120 114 114 112 108
248 172 177 171 139 130 146 240 198 224 223 177 192 255 243 230 235 257 284 289 271 208 188 173 244 212 219 255 188 213 223 74 254 218 231 189 170 171 170 170 174 176 176 174 173 176 177 179 185 184 182 187 189 187 182 179 178 174 168 165 163 160 160 162 162 162 165 160 159 160 161 165 164 161 156 153 149 144 142 139 134 129 126 126 127 126 126 129 131 128 125 124 120 115 115 112 111
208 158 139 151 354 45 161 228 219 232 228 185 186 248 250 231 215 256 303 304 286 224 196 205 169 107 254 244 232 226 213 228 228 232 230 177 170 172 171 173 176 178 178 177 177 179 180 183 186 186 189 194 194 187 182 179 178 176 171 168 165 160 160 162 162 165 167 164 163 162 167 169 161 156 154 152 147 144 142 136 132 128 125 128 128 128 128 131 130 128 126 123 119 116 117 113 114
197 183 35 124 223 0 164 241 234 210 241 218 211 246 243 215 197 222 285 283 266 248 206 221 147 166 264 85 267 228 206 230 232 237 204 174 173 174 174 177 178 179 180 179 180 181 183 186 188 193 199 199 195 187 185 183 179 177 173 170 167 164 162 163 162 162 162 163 163 162 167 167 157 153 151 150 148 147 141 133 131 127 126 130 128 129 131 131 129 128 125 123 120 117 118 114 119
162 167 93 130 206 271 236 259 258 223 252 251 242 251 250 225 200 208 260 263 258 249 228 215 157 186 275 21 266 261 232 222 215 206 182 175 177 177 178 180 182 180 180 182 182 183 186 189 190 198 205 202 196 190 188 186 181 178 175 171 169 167 164 164 161 158 159 160 162 163 165 164 158 153 150 149 149 147 139 132 131 127 128 133 129 129 131 130 128 127 124 122 119 118 118 114 124
103 23 147 145 176 231 252 246 252 247 245 248 253 251 249 226 199 207 236 266 252 235 266 190 156 214 229 261 257 286 236 200 196 184 176 177 177 181 183 184 187 183 182 184 185 186 187 191 193 199 206 203 197 191 190 189 184 179 175 171 169 167 165 165 162 160 161 161 163 164 163 162 158 154 153 153 149 142 134 133 133 129 131 132 130 130 129 127 127 126 124 123 120 119 118 114 127
86 353 126 199 202 224 237 232 244 248 255 286 292 253 235 210 178 216 219 269 252 215 268 105 180 226 176 277 253 262 228 185 191 180 173 176 179 185 186 187 190 188 186 186 187 189 190 193 196 201 204 202 200 195 192 190 184 178 174 170 167 165 164 164 162 161 161 161 160 160 159 156 154 151 153 152 143 136 135 136 135 132 132 130 131 129 126 125 126 128 128 127 123 122 118 118 135
216 308 106 210 218 221 215 222 244 249 273 308 280 253 217 175 156 224 214 248 245 219 236 181 189 178 154 280 256 290 276 194 189 177 174 176 181 185 188 190 191 192 191 190 190 191 192 194 198 201 203 203 202 198 193 189 184 179 176 170 165 164 163 163 160 158 159 159 156 154 153 150 149 148 149 147 137 136 140 139 135 135 132 130 132 129 127 127 129 131 132 132 127 125 121 127 145
208 168 117 216 210 196 193 213 246 255 282 257 240 248 161 151 185 221 198 222 225 212 244 208 164 146 185 262 278 317 278 198 181 174 177 177 183 185 189 192 192 195 194 194 193 193 195 195 199 202 204 206 204 199 193 188 184 177 173 168 166 166 165 164 158 154 156 158 154 151 149 146 145 146 148 146 139 140 142 138 136 136 134 134 133 131 130 129 133 134 133 137 132 124 123 138 153
199 165 139 221 244 166 189 212 245 229 262 249 239 243 146 184 208 205 157 230 238 199 236 199 149 151 225 282 305 307 229 194 175 174 178 178 186 187 191 194 195 197 197 198 197 198 198 199 201 203 205 207 207 201 193 186 179 173 171 171 172 174 173 170 162 160 163 165 160 156 155 149 144 145 146 146 142 140 142 139 139 141 140 139 136 133 135 134 137 137 138 144 139 126 123 143 157
186 142 114 201 288 255 221 209 204 206 245 252 240 160 170 253 179 154 180 223 254 220 201 174 159 174 207 193 232 264 211 187 173 175 178 180 187 189 195 197 200 201 202 203 202 203 203 204 205 205 208 208 207 202 193 183 176 175 175 177 178 178 177 175 172 172 175 177 173 169 167 160 154 150 148 149 142 140 144 143 143 147 145 142 141 136 139 142 142 145 149 153 145 130 125 147 160
146 103 86 231 236 233 224 192 186 221 249 246 253 95 272 277 152 172 233 196 269 295 52 209 191 153 197 174 200 279 197 178 173 175 175 179 184 190 195 198 203 204 205 206 206 207 206 207 207 207 210 208 204 197 191 182 176 177 178 181 182 181 180 181 181 180 181 183 182 180 177 173 171 165 163 161 151 149 150 150 149 149 147 143 143 137 139 144 145 152 159 161 152 141 140 153 162
89 93 120 251 224 210 202 185 197 211 244 259 287 277 231 287 309 227 271 102 245 293 325 248 256 37 202 203 284 292 174 172 172 172 172 176 180 185 193 197 202 203 205 207 208 209 208 208 208 208 208 208 200 190 189 184 178 178 181 184 184 186 186 187 187 186 188 190 189 189 190 192 193 190 186 179 170 166 162 161 154 151 153 148 146 141 145 147 145 153 160 168 169 166 163 161 165
134 130 222 239 208 197 190 190 204 195 231 257 278 218 198 260 290 251 42 25 300 278 299 286 306 284 225 293 303 169 165 170 170 170 170 173 178 183 190 195 200 202 203 205 207 208 209 208 208 208 206 206 198 189 189 187 186 185 186 187 187 190 192 192 192 192 195 195 194 195 198 199 199 198 196 189 183 180 179 181 169 165 168 162 158 149 157 158 146 157 168 182 192 187 172 165 170
180 155 237 240 196 199 194 194 206 209 233 254 280 241 193 229 256 43 249 275 269 246 277 309 312 283 255 79 144 156 162 168 171 174 175 177 183 186 190 195 200 203 204 204 205 206 208 208 207 208 207 203 195 190 191 189 189 189 189 189 189 191 193 196 197 197 198 197 196 196 198 198 197 198 197 193 191 190 187 185 181 181 180 173 164 154 168 169 155 170 182 193 200 181 167 168 173
201 187 245 243 208 227 217 209 220 224 233 258 277 268 244 234 209 180 230 259 252 225 246 257 271 266 251 161 143 160 163 170 177 180 185 189 192 192 192 196 201 204 205 205 206 206 207 208 206 206 207 202 193 189 190 192 191 190 190 190 191 192 193 197 198 199 197 196 197 197 199 199 199 201 198 197 200 197 191 188 187 189 185 176 168 163 173 175 170 183 188 194 193 167 168 173 175
194 189 234 230 197 240 228 213 231 234 227 235 262 294 288 250 181 203 197 256 263 232 231 226 229 244 237 183 158 169 166 174 183 188 194 197 200 200 201 202 203 205 205 205 206 207 207 207 206 203 202 199 195 190 188 191 194 195 194 193 193 193 195 196 197 197 196 197 198 199 202 202 203 203 202 206 210 204 196 193 191 189 185 180 177 174 176 181 185 188 185 189 186 172 175 178 178
218 212 226 217 178 240 234 211 230 233 230 244 259 282 276 250 213 219 197 241 250 211 223 222 221 236 229 176 166 170 172 184 187 195 201 203 205 207 209 208 207 206 206 207 207 207 207 206 206 205 201 197 195 195 193 192 193 195 195 195 195 195 197 198 196 197 197 199 201 202 204 204 203 203 205 210 212 206 198 194 191 187 185 183 184 186 186 189 195 191 186 189 186 181 182 181 180
245 239 243 235 204 232 240 214 233 223 227 246 239 253 269 0 287 229 201 237 236 210 224 225 233 238 182 142 160 174 184 193 194 200 202 204 207 209 211 208 206 205 206 209 209 208 208 207 206 205 204 201 197 196 197 196 194 195 195 195 196 196 198 200 199 199 201 203 205 207 207 205 204 204 207 208 208 205 199 196 192 189 187 188 191 194 196 194 196 195 193 192 188 186 184 183 181
252 258 282 261 234 238 239 243 260 241 229 238 250 304 293 262 275 249 230 245 231 232 247 239 249 178 132 144 174 189 193 197 201 205 204 205 208 210 211 209 208 206 206 210 210 210 209 207 206 204 204 204 203 200 198 197 197 198 199 198 198 198 199 201 203 204 206 208 208 209 209 208 208 209 209 208 208 203 199 196 193 192 193 195 197 199 202 199 196 195 196 194 191 189 186 185 182
251 248 264 260 250 249 250 262 272 272 249 246 278 282 263 245 265 271 256 257 221 224 242 223 165 136 155 176 188 197 201 206 209 210 211 213 214 214 214 213 211 208 210 211 209 210 211 209 207 205 205 204 205 205 204 202 200 199 200 201 201 201 202 204 207 210 211 212 211 211 211 211 212 212 210 209 207 200 196 196 195 196 198 200 202 204 207 206 200 197 197 196 193 191 188 185 183
238 234 253 260 273 279 279 272 273 280 263 208 254 266 263 253 281 269 257 255 225 218 235 211 168 180 198 198 197 199 203 208 212 212 215 216 215 215 217 217 212 212 215 213 208 209 211 210 209 207 207 206 205 206 206 207 206 204 203 204 204 204 205 208 211 213 215 216 215 214 215 215 215 213 211 209 202 196 195 197 199 200 202 205 207 209 210 210 207 202 200 198 194 191 188 185 184
246 268 278 261 276 290 282 277 280 292 280 203 228 263 268 254 247 260 260 258 220 203 228 217 191 212 215 213 210 204 206 210 211 210 212 211 208 214 219 216 215 217 216 213 211 210 209 210 211 210 208 207 207 207 207 208 209 209 208 207 207 208 209 211 213 215 217 219 219 217 217 216 216 215 212 206 199 196 198 200 203 205 207 208 212 214 212 210 208 206 202 199 196 192 187 183 184
306 323 307 286 298 293 260 275 279 275 275 210 199 260 276 289 232 250 270 20 208 184 224 222 206 226 220 222 223 213 221 222 215 208 204 202 207 212 214 215 216 216 215 215 214 209 207 209 211 211 209 208 207 207 209 209 209 209 209 210 210 211 212 214 216 218 219 221 221 219 216 214 214 213 209 204 200 200 202 204 207 209 212 213 214 215 213 209 206 205 201 199 196 192 188 181 181
310 2 313 298 325 300 260 256 241 214 236 179 150 278 275 245 245 252 256 42 140 167 237 241 226 237 228 228 230 226 233 229 218 215 217 213 213 213 214 217 215 214 216 216 214 210 209 210 211 211 210 209 208 208 209 209 210 210 210 212 213 214 214 217 220 222 222 222 220 217 214 212 210 210 208 206 205 205 207 209 211 213 215 215 214 212 211 209 205 202 199 197 195 192 188 181 178
300 11 288 298 327 297 259 230 217 208 223 154 144 273 268 249 252 258 231 212 197 188 251 258 251 250 239 233 228 233 233 222 217 221 224 222 221 220 221 223 218 217 218 215 214 214 212 210 209 210 210 211 210 208 209 209 210 211 211 212 214 216 217 220 223 225 223 221 219 215 212 210 209 209 208 208 208 208 210 212 216 217 216 215 214 212 210 208 205 202 198 194 192 190 188 182 179
307 308 278 287 282 276 284 260 168 189 241 147 167 251 262 259 262 270 22 250 219 233 256 258 262 269 268 263 253 253 246 228 234 237 236 233 231 229 228 228 222 220 218 215 217 216 213 210 208 209 210 211 210 209 210 210 211 211 212 212 213 216 218 221 224 225 224 220 218 214 212 211 209 209 209 210 210 211 214 217 220 220 218 215 213 211 208 206 204 201 199 195 189 187 187 182 180
337 265 274 260 225 269 315 313 164 181 280 128 171 236 264 266 272 18 32 42 100 247 269 272 277 281 278 278 269 265 264 248 247 249 248 243 239 236 233 231 225 221 219 218 218 215 212 211 210 209 209 210 210 211 211 211 212 212 213 213 214 216 218 222 224 226 224 221 219 216 214 213 210 209 209 212 215 217 220 223 222 219 217 214 211 209 206 205 202 198 198 199 192 185 184 181 179
321 219 258 257 238 274 318 304 234 198 288 165 192 228 265 270 275 104 51 50 33 287 283 280 278 276 272 275 269 264 269 263 254 248 244 240 238 237 235 233 228 224 222 219 218 215 212 211 211 210 210 211 211 211 212 212 212 212 213 214 215 217 220 223 224 225 223 221 220 219 217 215 212 211 211 214 218 222 224 224 222 218 216 213 210 207 205 205 203 199 194 196 199 192 186 182 178
272 231 253 259 240 261 292 298 321 23 5 242 242 245 259 265 252 269 304 33 335 290 278 275 273 273 270 267 270 267 262 261 259 249 243 239 237 238 236 233 230 226 223 221 219 217 213 211 211 211 212 212 211 211 211 212 212 213 214 215 216 218 220 223 224 224 222 221 220 218 217 214 213 213 215 217 220 223 224 223 220 216 214 211 209 207 204 203 203 203 196 192 198 198 192 186 181
233 230 245 270 250 250 263 266 302 0 340 261 274 263 264 270 266 278 296 307 297 278 267 270 268 269 271 264 261 259 257 255 252 249 247 244 241 240 237 233 230 227 223 220 218 218 214 212 212 211 212 212 211 210 210 211 212 213 214 214 215 216 218 220 221 222 222 220 218 216 216 215 215 216 218 221 223 223 222 221 219 215 213 210 208 205 203 202 201 202 200 194 192 195 197 191 183
224 222 226 263 272 258 239 238 257 257 269 263 256 258 266 271 272 281 290 286 282 275 274 275 266 262 265 263 256 249 250 251 251 252 252 250 247 243 238 233 229 226 223 218 215 215 213 212 210 210 211 210 208 207 207 208 208 209 210 210 210 212 214 216 218 220 220 218 216 215 216 218 219 220 222 224 225 223 221 219 217 214 212 210 208 207 206 205 202 200 200 197 189 186 190 189 184
237 236 252 259 269 271 244 242 253 187 216 258 243 253 262 267 275 277 269 279 283 278 280 273 263 257 254 256 258 254 248 250 260 264 257 253 252 247 240 232 225 220 218 215 211 212 212 211 209 208 208 207 206 205 205 205 204 203 204 206 207 208 211 214 216 218 218 218 216 217 220 222 222 222 224 225 224 223 221 218 216 213 212 212 212 212 210 206 203 200 197 196 192 186 183 184 185
257 247 274 273 260 270 262 242 250 194 197 261 251 257 265 267 276 277 273 285 279 271 271 268 264 262 260 258 261 262 261 269 287 288 273 263 254 245 236 227 218 214 212 210 211 212 211 209 208 207 206 205 206 207 205 205 205 205 204 205 206 209 213 216 218 219 218 219 218 219 221 223 223 223 224 224 223 222 219 217 215 214 214 213 213 212 209 206 202 201 197 193 193 192 187 185 184
257 255 271 273 264 280 276 246 255 215 185 262 269 263 267 267 273 277 267 262 261 260 260 266 272 270 267 263 264 274 285 294 302 299 291 284 273 252 233 224 220 217 214 211 211 210 207 207 208 207 206 205 206 207 206 204 205 206 207 209 209 210 214 218 220 220 218 218 220 221 222 223 224 223 223 222 222 222 221 219 217 216 216 214 211 209 207 206 204 203 202 197 191 190 191 189 188
241 243 249 263 264 270 268 263 296 259 203 255 287 282 275 270 275 272 251 244 257 265 266 272 269 259 264 276 293 306 303 306 310 308 308 308 301 278 240 227 224 219 214 211 209 207 206 207 207 206 205 204 203 204 204 203 203 204 207 211 212 212 215 217 219 220 218 217 219 219 221 223 223 222 222 222 223 224 223 223 220 218 217 215 213 211 208 207 207 206 204 202 195 188 188 191 194
232 229 229 250 251 229 239 271 336 307 263 252 261 292 284 260 243 262 266 278 272 269 278 277 268 268 307 329 335 335 327 324 322 318 320 322 314 296 269 247 232 220 216 214 210 207 207 207 206 204 203 202 201 201 201 200 198 196 197 198 201 204 208 209 209 213 213 213 215 216 218 220 220 221 222 223 225 226 226 225 223 221 218 216 215 215 213 211 210 209 205 204 202 196 193 192 196
258 230 217 231 243 238 245 279 2 342 307 251 203 279 288 258 219 263 298 325 283 281 280 269 280 348 16 1 350 351 346 340 334 327 324 323 317 305 292 274 248 230 223 220 214 209 208 208 206 203 201 200 200 199 199 198 195 193 190 186 187 189 191 199 205 208 209 210 212 213 214 216 218 221 223 225 227 228 229 228 226 224 222 220 218 217 216 213 212 211 209 208 208 208 204 196 197
272 236 205 218 232 241 251 251 127 248 273 266 140 206 273 291 274 257 271 291 290 291 276 277 339 20 18 9 2 356 354 353 349 344 342 342 337 326 317 302 271 247 236 226 216 209 207 207 203 201 200 198 197 198 198 198 196 196 196 195 194 193 195 202 209 211 211 211 211 211 211 214 218 221 224 226 229 231 232 230 228 227 225 224 221 218 218 217 216 215 214 214 213 213 210 204 203
255 231 186 197 208 227 236 213 193 227 274 293 166 156 269 290 274 238 271 304 292 278 276 325 31 27 16 15 8 2 2 1 359 359 2 3 359 354 356 3 2 283 235 215 203 201 202 203 200 198 197 196 197 198 199 200 199 199 200 201 201 202 204 206 207 209 211 210 210 210 210 212 217 222 225 229 233 235 234 232 230 229 228 227 224 223 222 221 220 218 217 217 217 217 216 216 213
251 211 164 179 193 216 210 186 209 254 351 288 213 146 244 277 273 311 4 290 273 277 303 23 36 24 22 17 10 8 6 6 9 9 7 8 8 6 11 24 36 47 89 175 186 192 195 195 194 194 194 196 197 199 200 201 203 203 202 202 204 206 208 209 207 207 209 208 208 208 208 211 215 221 227 232 236 237 236 235 232 231 231 230 228 228 227 225 224 223 221 220 220 220 221 222 223
245 138 123 83 94 114 122 174 183 86 330 251 198 165 211 273 280 305 340 263 266 290 340 51 41 29 28 20 13 11 10 14 13 12 12 13 15 16 23 31 34 38 52 101 159 177 185 187 188 189 191 194 196 199 200 201 203 204 204 204 205 204 204 204 203 203 205 206 206 206 207 210 214 219 224 229 233 236 237 237 235 234 233 233 232 231 230 230 229 229 228 227 225 225 225 225 227
127 123 141 23 44 51 60 122 103 87 269 230 183 187 193 268 286 255 212 221 270 309 336 39 35 31 28 23 19 17 18 18 14 14 15 17 20 23 28 31 30 34 41 49 74 140 170 178 183 184 188 193 195 197 200 201 203 205 208 208 207 205 202 198 196 197 200 202 204 206 207 209 213 217 221 226 231 234 236 237 238 238 237 236 236 235 235 235 234 234 233 232 231 231 231 230 229
99 131 150 350 317 23 28 358 67 167 255 240 190 191 185 225 271 266 246 28 30 339 336 19 37 37 30 28 27 24 24 21 21 20 17 18 21 23 26 27 27 32 35 37 42 56 102 149 173 176 180 188 193 197 200 201 203 207 211 212 212 210 206 203 201 200 201 202 203 204 204 206 211 217 221 225 229 231 234 237 239 239 239 238 238 239 239 239 239 238 237 236 235 235 235 234 233
112 125 120 180 289 348 354 302 138 219 252 260 248 102 194 232 262 282 295 12 34 25 37 52 59 52 38 34 31 28 29 27 28 27 23 24 22 21 24 25 27 28 30 34 40 45 53 65 98 125 136 169 187 194 199 203 207 211 215 217 217 216 213 212 212 210 210 209 207 205 204 206 212 219 224 226 228 229 234 239 241 243 244 243 241 241 242 242 242 242 241 240 239 238 238 238 239
145 156 149 176 215 238 241 229 227 262 265 269 241 201 263 270 283 304 346 39 44 52 58 58 61 56 46 42 35 34 35 31 30 29 28 28 26 25 27 28 29 29 30 34 39 45 51 53 56 63 65 78 159 186 198 204 209 214 219 222 223 222 221 221 220 220 219 217 215 214 214 216 221 229 233 235 235 234 237 242 244 246 247 246 246 246 246 246 246 246 246 245 244 244 244 244 245
177 180 137 153 173 191 236 213 212 258 278 287 241 180 204 224 7 42 67 66 53 54 54 54 56 52 51 48 41 38 36 29 26 27 28 27 27 29 31 31 32 31 33 35 37 41 47 51 54 57 55 52 59 84 198 215 223 225 227 230 231 231 230 230 228 228 228 227 225 224 224 226 231 237 242 244 245 242 241 243 245 246 247 247 249 250 250 249 249 249 249 250 250 249 248 247 248
248 168 105 164 191 165 216 210 190 199 285 273 214 216 224 174 92 68 78 61 49 47 43 48 47 40 45 46 39 36 31 27 26 26 26 24 25 29 32 32 32 32 34 36 36 38 42 46 52 56 55 54 56 54 47 13 302 273 258 251 248 244 241 238 235 233 233 234 233 232 233 235 239 244 247 248 250 250 250 250 249 249 250 251 253 253 252 252 251 251 252 252 253 252 251 251 251
147 129 163 215 169 135 180 255 179 114 239 257 169 234 275 49 90 99 76 54 43 40 38 45 42 36 43 41 34 33 30 30 31 28 26 23 23 27 30 33 32 32 35 36 38 39 41 44 48 52 54 56 56 56 55 53 46 37 16 328 292 275 262 254 249 245 243 241 238 236 236 238 241 243 246 247 248 250 252 253 253 253 253 253 254 255 255 255 254 254 253 254 256 257 256 255 253
108 153 218 223 138 111 113 262 326 117 234 273 182 221 267 11 209 263 44 41 36 36 36 42 39 36 42 39 33 33 32 32 32 29 27 25 25 26 29 32 34 35 36 38 40 43 45 46 47 49 51 52 54 57 59 60 61 60 55 52 48 36 9 308 276 267 262 253 248 244 241 242 242 242 244 245 245 246 248 251 253 255 255 255 256 257 259 258 257 255 255 256 259 259 258 257 256
104 193 197 79 220 258 78 150 273 235 230 278 264 239 247 202 217 319 347 358 34 48 39 42 40 36 39 35 31 30 28 28 29 27 25 25 27 27 28 29 31 35 38 39 41 44 45 46 47 49 50 51 53 56 59 60 61 60 60 59 60 59 59 57 55 49 339 260 256 254 251 250 251 254 254 252 251 251 251 253 255 256 258 259 259 260 261 261 259 258 258 258 259 258 256 257 257
40 61 72 71 199 219 180 163 230 232 252 279 302 316 262 223 246 310 316 335 52 79 56 52 49 44 44 38 35 33 29 28 28 28 27 28 29 27 26 27 28 32 35 37 40 42 43 43 44 46 48 50 51 52 54 56 57 60 62 61 61 60 61 62 64 66 65 62 58 34 271 259 256 259 260 259 259 260 260 260 259 259 260 260 261 262 262 261 260 259 258 258 258 256 254 254 255
7 344 296 295 264 290 302 226 174 210 247 259 287 284 257 233 350 304 322 24 68 90 83 76 62 54 52 46 41 40 37 36 34 32 29 28 28 25 24 25 27 30 32 34 37 39 40 41 41 42 44 45 46 47 49 51 52 56 58 58 57 58 58 60 61 62 61 59 57 57 59 56 1 263 257 252 252 254 257 260 260 261 261 261 262 262 262 260 258 257 257 256 255 253 251 251 252
212 210 230 225 200 39 306 266 204 211 233 202 242 269 257 43 17 19 61 69 79 86 90 87 68 58 55 49 47 46 43 41 37 36 33 29 28 26 24 25 27 28 29 29 31 34 37 38 38 39 41 42 42 43 44 46 49 52 53 53 54 54 54 55 56 56 54 54 53 54 56 59 60 58 57 53 250 248 248 249 253 258 261 262 263 263 262 260 257 256 256 256 255 253 252 252 251